Regional Weather Roundup
Issued by NWS Mobile, AL

Home | Current Version | Previous Version | Text Only | Print | Product List | Glossary On
Versions: 1 2 3 4 5 6 7 8 9 10 11 12 13 14 15 16 17 18 19 20 21 22 23 24 25 26 27 28 29 30 31 32 33 34 35 36 37 38 39 40 41 42 43 44 45 46 47 48 49 50
000
ASUS44 KMOB 290916
RWRMOB
REGIONAL WEATHER ROUNDUP
NATIONAL WEATHER SERVICE MOBILE AL
400 AM CDT FRI MAY 29 2015

ALZ061>064-291000-
COASTAL ALABAMA


CITY           SKY/WX    TMP DP  RH WIND       PRES   REMARKS
MOBILE REG APT PTCLDY    70  70 100 CALM      30.06R
BROOKLEY FIELD PTCLDY    75  72  90 SE8       30.06R
GULF SHORES    SUNNY     73  72  96 E8        30.03F

$$

ALZ051>060-291000-
INTERIOR SOUTHWEST AND SOUTH CENTRAL ALABAMA


CITY           SKY/WX    TMP DP  RH WIND       PRES   REMARKS
ANDALUSIA/OPP  CLOUDY    72  66  83 SE3       30.09R FOG
EVERGREEN      CLOUDY    68  67  96 E6        30.08S FOG
FLORALA        CLOUDY    68  67  96 E5        30.10R FOG
GREENVILLE     FOG       67  66  97 SE3       30.09R VSB 1/2

$$

FLZ001>006-291000-
WESTERN FLORIDA PANHANDLE


CITY           SKY/WX    TMP DP  RH WIND       PRES   REMARKS
CRESTVIEW      MOCLDY    66  66 100 E5        30.08S FOG
DESTIN         CLEAR     73  70  90 E6        30.06R
DUKE FIELD     FAIR      67  66  96 E6        30.06S
MARY ESTHER    CLEAR     69  66  90 E5        30.05R
MILTON         SUNNY     70  67  90 SE5       30.05F
PENSACOLA      CLOUDY    72  72 100 E3        30.04F
NAS PENSACOLA  PTCLDY    74  72  93 E6        30.03F FOG
VALPARAISO     PTCLDY    69  67  93 E3        30.06R

$$

...MARINE OBSERVATIONS...

STATION/POSITION TIME  SKY/WX   TEMP    WIND        PRES    VSBY
                                AIR SEA DIR/SP/G
                 (UTC)          (F)     (DEG/KT/KT) (MB)    (MI)
PASCAGOULA       0800            78     140/  9/ 12 1016.8R
PETIT BOIS ISL   0800            79     140/ 10/ 12 1017.3S
E DAUPHIN ISLAND 0900            78     130/ 11/ 12 1016.9R
MIDDLE BAY LIGHT 0800            75     120/ 16     1016.3S
USCG MOBILE BAY  0800            75 81  130/  8/ 11 1016.2S
STATE DOCKS      0800            74 78              1017.1S
MEAHER PARK      0900            72      80/  3     1017.3R
FORT MORGAN      0800            78     150/ 15/ 16 1016.6F
12 S ORANGE BCH  0850            79 80  120/ 12/ 12 1016.3F
WVE H/P(F/S)=  2/ 8

PENSACOLA BAY    0800            76 82   CALM  /  5 1017.8
64 S DAUPHIN ISL 0850            78 80  110/  8/ 10 1017.0F
WVE H/P(F/S)=  2/ 6

115 SE PENSACOLA 0850            79 81   90/ 14/ 16 1017.4F
WVE H/P(F/S)=  2/ 7

MID GULF/42001   0850            81 82  100/ 14/ 16 1015.7F
WVE H/P(F/S)=  3/ 5

EAST GULF/42003  0850            79 81   70/ 14/ 16 1015.8F
WVE H/P(F/S)=  3/ 5


$$

...NEARBY LOCATIONS

CITY           SKY/WX    TMP DP  RH WIND       PRES   REMARKS
GULFPORT       MOCLDY    77  69  76 CALM      30.03S
BILOXI         PTCLDY    78  72  82 S9        30.03S
PASCAGOULA     PTCLDY    69  68  96 CALM      30.05R
HATTIESBURG    PTCLDY    69  68  96 CALM      30.07R
LAUREL         CLOUDY    68  66  94 E3        30.08R VSB 3/4
MERIDIAN       CLOUDY    71  68  90 S6        30.07S
MERIDIAN NAS   CLOUDY    70  68  93 CALM      30.08R FOG
MONTGOMERY     CLOUDY    68  66  93 E3        30.10R
MAXWELL AFB    MOCLDY    68  67  98 E3        30.09S
TROY           FOG       68  67  96 NE5       30.10S VSB 3/4
FORT RUCKER    MOCLDY    67  65  93 CALM      30.09R
DALEVILLE      MOCLDY    67  66  99 E2        30.09S
DOTHAN         CLEAR     68  66  93 N3        30.13S

$$

...OTHER SURROUNDING LOCATIONS...

CITY           SKY/WX    TMP DP  RH WIND       PRES   REMARKS
BIRMINGHAM     PTCLDY    66  65  96 CALM      30.12S
TUSCALOOSA     CLOUDY    68  66  93 CALM      30.09S
COLUMBUS GA    CLEAR     68  66  93 CALM      30.11R
PANAMA CITY    NOT AVBL
TALLAHASSEE    CLEAR     70  64  81 E6        30.08S
BATON ROUGE    PTCLDY    73  71  93 NE3       30.03S
NEW ORLEANS    PTCLDY    75  71  87 SE5       30.03S
SLIDELL        PTCLDY    72  71  97 CALM      30.04R
JACKSON        CLOUDY    73  70  90 S8        30.03F
MCCOMB         CLOUDY    73  73 100 S6        30.05S FOG

$$

...SURROUNDING MARINE OBSERVATIONS...

STATION/POSITION TIME  SKY/WX   TEMP    WIND        PRES    VSBY
                                AIR SEA DIR/SP/G
                 (UTC)          (F)     (DEG/KT/KT) (MB)    (MI)
WAVELAND         0800            79 81  160/ 11/ 12 1017.2F
PASCAGOULA RGN A 0800            78     140/  8/ 11 1016.5S
PASCAGOULA PORT  0800               82                N/A
GRAND ISLE       0800            79 82  160/  6/  9 1016.8
SOUTHWEST PASS   0900            79     160/  9/ 10 1017.1R
PILOT STATION E  0800            78 74  140/  8/ 11 1017.3
SHELL BEACH      0800            76 81  180/  4/  5 1016.5S
PANAMA CITY      0800            71 82   70/  7/ 11 1017.3
APALACHICOLA     0800            73 83   70/  9/ 11 1017.9
TYNDALL TOWER C  0900            78     130/ 15/ 17 1017.3F
S APLCHCLA/42036 0850            79 81  120/ 17/ 19 1017.1F
WVE H/P(F/S)=  3/ 4


$$



USA.gov is the U.S. government's official web portal to all federal, state and local government web resources and services.